| time (UTC) | temp F | wind direction | speed knots | gust knots | rain 1hr in | rain 24hr in | rain mn in | humidity % | barometer mb |
| 20260904090039 | 50 | 90 | 1.7 | 2.6 | 0.00 | 0.00 | 0.00 | 86 | 1007.8 |
| 20260904085534 | 50 | 90 | 1.7 | 1.7 | 0.00 | 0.00 | 0.00 | 86 | 1007.9 |
| 20260904085034 | 50 | 98 | 0.9 | 2.6 | 0.00 | 0.00 | 0.00 | 87 | 1007.7 |
| 20260904084530 | 50 | 90 | 1.7 | 2.6 | 0.00 | 0.00 | 0.00 | 87 | 1008.1 |
| 20260904084026 | 50 | 90 | 1.7 | 2.6 | 0.00 | 0.00 | 0.00 | 87 | 1007.9 |
| 20260904083522 | 50 | 105 | 0.9 | 2.6 | 0.00 | 0.00 | 0.00 | 87 | 1007.7 |
| 20260904083017 | 50 | 100 | 1.7 | 1.7 | 0.00 | 0.00 | 0.00 | 87 | 1007.8 |
| 20260904082512 | 50 | 90 | 1.7 | 2.6 | 0.00 | 0.00 | 0.00 | 86 | 1007.8 |
| 20260904082007 | 50 | 105 | 1.7 | 2.6 | 0.00 | 0.00 | 0.00 | 86 | 1007.4 |
| 20260904081503 | 50 | 85 | 1.7 | 1.7 | 0.00 | 0.00 | 0.00 | 86 | 1007.6 |
| 20260904080958 | 50 | 106 | 0.9 | 0.9 | 0.00 | 0.00 | 0.00 | 86 | 1007.9 |
| 20260904080453 | 50 | 102 | 0.9 | 1.7 | 0.00 | 0.00 | 0.00 | 86 | 1007.8 |
| 20260904075949 | 50 | 84 | 1.7 | 1.7 | 0.00 | 0.00 | 0.00 | 86 | 1007.7 |
| 20260904075445 | 50 | 86 | 1.7 | 2.6 | 0.00 | 0.00 | 0.00 | 85 | 1007.7 |
| 20260904074944 | 50 | 111 | 0.0 | 2.6 | 0.00 | 0.00 | 0.00 | 85 | 1007.8 |
| 20260904074439 | 50 | 100 | 2.6 | 5.2 | 0.00 | 0.00 | 0.00 | 85 | 1007.8 |
| 20260904073934 | 50 | 115 | 1.7 | 6.1 | 0.00 | 0.00 | 0.00 | 86 | 1007.8 |
| 20260904073430 | 49 | 106 | 3.5 | 6.1 | 0.00 | 0.00 | 0.00 | 87 | 1007.7 |
| 20260904072925 | 49 | 90 | 2.6 | 3.5 | 0.00 | 0.00 | 0.00 | 88 | 1007.9 |
| 20260904072420 | 49 | 108 | 2.6 | 3.5 | 0.00 | 0.00 | 0.00 | 88 | 1007.9 |
| 20260904071916 | 49 | 104 | 2.6 | 3.5 | 0.00 | 0.00 | 0.00 | 87 | 1008.0 |
| 20260904071411 | 50 | 87 | 2.6 | 4.3 | 0.00 | 0.00 | 0.00 | 87 | 1008.1 |
| 20260904070906 | 50 | 112 | 2.6 | 4.3 | 0.00 | 0.00 | 0.00 | 86 | 1008.0 |
| 20260904070404 | 50 | 103 | 2.6 | 3.5 | 0.00 | 0.00 | 0.00 | 86 | 1007.9 |
| 20260904065905 | 50 | 93 | 3.5 | 5.2 | 0.00 | 0.00 | 0.00 | 87 | 1007.9 |
| 20260904065401 | 49 | 98 | 2.6 | 5.2 | 0.00 | 0.00 | 0.00 | 88 | 1007.8 |
| 20260904064900 | 49 | 111 | 0.9 | 2.6 | 0.00 | 0.00 | 0.00 | 87 | 1007.9 |
| 20260904064357 | 50 | 109 | 2.6 | 2.6 | 0.00 | 0.00 | 0.00 | 87 | 1008.1 |
| 20260904063852 | 50 | 87 | 2.6 | 3.5 | 0.00 | 0.00 | 0.00 | 87 | 1007.9 |
| 20260904063349 | 50 | 113 | 1.7 | 3.5 | 0.00 | 0.00 | 0.00 | 87 | 1007.7 |
| 20260904062843 | 50 | 94 | 1.7 | 2.6 | 0.00 | 0.00 | 0.00 | 87 | 1007.8 |
| 20260904062340 | 50 | 108 | 2.6 | 3.5 | 0.00 | 0.00 | 0.00 | 86 | 1007.8 |
| 20260904061835 | 51 | 85 | 3.5 | 4.3 | 0.00 | 0.00 | 0.00 | 86 | 1007.7 |
| 20260904061331 | 51 | 101 | 1.7 | 1.7 | 0.00 | 0.00 | 0.00 | 87 | 1007.9 |
| 20260904060827 | 51 | 101 | 1.7 | 2.6 | 0.00 | 0.00 | 0.00 | 87 | 1008.4 |
| 20260904060323 | 51 | 126 | 0.0 | 1.7 | 0.00 | 0.00 | 0.00 | 85 | 1007.8 |
| 20260904055818 | 51 | 103 | 3.5 | 3.5 | 0.00 | 0.08 | 0.08 | 86 | 1008.1 |
| 20260904055313 | 51 | 75 | 1.7 | 2.6 | 0.00 | 0.08 | 0.08 | 85 | 1008.0 |
| 20260904054803 | 51 | 95 | 1.7 | 2.6 | 0.00 | 0.08 | 0.08 | 85 | 1008.5 |
| 20260904054259 | 52 | 90 | 1.7 | 1.7 | 0.00 | 0.08 | 0.08 | 84 | 1008.3 |
| 20260904053754 | 52 | 86 | 2.6 | 2.6 | 0.00 | 0.08 | 0.08 | 83 | 1008.1 |
| 20260904053253 | 51 | 116 | 3.5 | 3.5 | 0.00 | 0.08 | 0.08 | 86 | 1008.5 |
| 20260904052750 | 51 | 98 | 1.7 | 1.7 | 0.00 | 0.08 | 0.08 | 86 | 1008.5 |
| 20260904052246 | 52 | 98 | 1.7 | 2.6 | 0.00 | 0.08 | 0.08 | 86 | 1008.7 |
| 20260904051742 | 52 | 103 | 1.7 | 2.6 | 0.00 | 0.08 | 0.08 | 85 | 1008.5 |
| 20260904051237 | 53 | 107 | 1.7 | 1.7 | 0.00 | 0.08 | 0.08 | 84 | 1008.6 |
| 20260904050732 | 53 | 90 | 0.0 | 0.0 | 0.00 | 0.08 | 0.08 | 84 | 1008.7 |
| 20260904050228 | 53 | 66 | 0.9 | 0.9 | 0.00 | 0.08 | 0.08 | 84 | 1008.6 |
| 20260904045723 | 53 | 90 | 1.7 | 1.7 | 0.00 | 0.08 | 0.08 | 82 | 1008.6 |
| 20260904045218 | 54 | 74 | 1.7 | 2.6 | 0.00 | 0.08 | 0.08 | 82 | 1009.1 |
| 20260904044713 | 54 | 114 | 0.0 | 0.9 | 0.00 | 0.08 | 0.08 | 81 | 1009.0 |
| 20260904044209 | 54 | 194 | 0.0 | 0.9 | 0.00 | 0.08 | 0.08 | 81 | 1009.4 |
| 20260904043705 | 54 | 65 | 1.7 | 2.6 | 0.00 | 0.08 | 0.08 | 80 | 1008.9 |
| 20260904043201 | 54 | 90 | 0.9 | 2.6 | 0.00 | 0.08 | 0.08 | 80 | 1009.3 |
| 20260904042657 | 54 | 161 | 1.7 | 2.6 | 0.00 | 0.08 | 0.08 | 80 | 1009.7 |
| 20260904042153 | 54 | 54 | 0.9 | 1.7 | 0.00 | 0.08 | 0.08 | 81 | 1009.6 |
| 20260904041647 | 54 | 198 | 0.9 | 2.6 | 0.00 | 0.08 | 0.08 | 80 | 1009.6 |
| 20260904041143 | 54 | 140 | 0.0 | 2.6 | 0.00 | 0.08 | 0.08 | 78 | 1009.7 |
| 20260904040639 | 55 | 240 | 0.0 | 2.6 | 0.00 | 0.08 | 0.08 | 76 | 1009.4 |
| 20260904040135 | 54 | 116 | 3.5 | 4.3 | 0.00 | 0.08 | 0.08 | 76 | 1009.4 |
| 20260904035630 | 54 | 106 | 2.6 | 3.5 | 0.00 | 0.08 | 0.08 | 77 | 1009.5 |
| 20260904035125 | 54 | 137 | 4.3 | 7.0 | 0.00 | 0.08 | 0.08 | 77 | 1009.3 |
| 20260904034624 | 54 | 92 | 3.5 | 6.1 | 0.00 | 0.08 | 0.08 | 77 | 1009.6 |
| 20260904034120 | 54 | 62 | 5.2 | 7.0 | 0.00 | 0.08 | 0.08 | 76 | 1009.7 |
| 20260904033615 | 55 | 105 | 3.5 | 8.7 | 0.00 | 0.08 | 0.08 | 76 | 1009.7 |
| 20260904033113 | 54 | 115 | 4.3 | 8.7 | 0.00 | 0.08 | 0.08 | 76 | 1009.5 |
| 20260904032608 | 55 | 134 | 3.5 | 7.8 | 0.00 | 0.08 | 0.08 | 76 | 1009.7 |
| 20260904032107 | 55 | 100 | 3.5 | 7.0 | 0.00 | 0.08 | 0.08 | 75 | 1009.9 |
| 20260904031606 | 55 | 114 | 6.1 | 7.0 | 0.00 | 0.08 | 0.08 | 75 | 1010.0 |
| 20260904031103 | 55 | 116 | 7.0 | 7.8 | 0.00 | 0.08 | 0.08 | 75 | 1010.1 |
| 20260904030558 | 54 | 107 | 4.3 | 7.8 | 0.00 | 0.08 | 0.08 | 78 | 1009.8 |
| 20260904030053 | 54 | 98 | 2.6 | 7.8 | 0.00 | 0.08 | 0.08 | 80 | 1010.0 |
| 20260904025549 | 54 | 111 | 5.2 | 7.8 | 0.00 | 0.08 | 0.08 | 79 | 1010.3 |
| 20260904025044 | 54 | 101 | 2.6 | 7.0 | 0.00 | 0.08 | 0.08 | 79 | 1010.4 |
| 20260904024539 | 55 | 112 | 6.1 | 8.7 | 0.00 | 0.08 | 0.08 | 78 | 1010.1 |
| 20260904024035 | 56 | 120 | 2.6 | 6.1 | 0.00 | 0.08 | 0.08 | 77 | 1010.0 |
| 20260904023531 | 56 | 118 | 7.0 | 7.0 | 0.00 | 0.08 | 0.08 | 76 | 1009.7 |
| 20260904023026 | 56 | 124 | 3.5 | 5.2 | 0.00 | 0.08 | 0.08 | 76 | 1010.0 |
| 20260904022521 | 56 | 128 | 3.5 | 7.0 | 0.00 | 0.08 | 0.08 | 76 | 1010.3 |
| 20260904022018 | 56 | 110 | 2.6 | 4.3 | 0.00 | 0.08 | 0.08 | 77 | 1010.4 |
| 20260904021513 | 57 | 102 | 2.6 | 3.5 | 0.00 | 0.08 | 0.08 | 76 | 1010.3 |
| 20260904021009 | 56 | 108 | 2.6 | 2.6 | 0.00 | 0.08 | 0.08 | 77 | 1010.8 |
| 20260904020503 | 57 | 85 | 1.7 | 2.6 | 0.00 | 0.08 | 0.08 | 78 | 1010.6 |
| 20260904020003 | 57 | 90 | 0.9 | 1.7 | 0.00 | 0.08 | 0.08 | 76 | 1010.4 |
| 20260904015458 | 57 | 105 | 1.7 | 2.6 | 0.00 | 0.08 | 0.08 | 76 | 1010.5 |
| 20260904014956 | 58 | 110 | 1.7 | 2.6 | 0.00 | 0.08 | 0.08 | 75 | 1010.8 |
| 20260904014451 | 58 | 95 | 1.7 | 2.6 | 0.00 | 0.08 | 0.08 | 73 | 1010.7 |
| 20260904013947 | 58 | 111 | 2.6 | 2.6 | 0.00 | 0.08 | 0.08 | 74 | 1010.8 |
| 20260904013443 | 59 | 113 | 2.6 | 2.6 | 0.00 | 0.08 | 0.08 | 71 | 1010.7 |
| 20260904012939 | 60 | 79 | 2.6 | 2.6 | 0.00 | 0.08 | 0.08 | 66 | 1010.8 |
| 20260904012438 | 61 | 52 | 1.7 | 1.7 | 0.00 | 0.08 | 0.08 | 69 | 1010.7 |
| 20260904011933 | 61 | 90 | 0.0 | 1.7 | 0.00 | 0.08 | 0.08 | 68 | 1010.9 |
| 20260904011427 | 60 | 117 | 1.7 | 1.7 | 0.00 | 0.08 | 0.08 | 72 | 1010.9 |
| 20260904010923 | 61 | 90 | 0.0 | 1.7 | 0.00 | 0.08 | 0.08 | 69 | 1010.9 |
| 20260904010420 | 62 | 66 | 1.7 | 1.7 | 0.00 | 0.08 | 0.08 | 67 | 1011.1 |
| 20260904005914 | 62 | 114 | 3.5 | 3.5 | 0.00 | 0.08 | 0.08 | 64 | 1010.9 |
| 20260904005410 | 63 | 26 | 0.9 | 1.7 | 0.00 | 0.08 | 0.08 | 65 | 1011.1 |
| 20260904004904 | 63 | 20 | 0.0 | 1.7 | 0.00 | 0.08 | 0.08 | 69 | 1011.4 |
| 20260904004401 | 62 | 32 | 0.0 | 1.7 | 0.00 | 0.08 | 0.08 | 69 | 1011.5 |
| 20260904003901 | 61 | 151 | 0.0 | 1.7 | 0.00 | 0.08 | 0.08 | 72 | 1011.1 |
| 20260904003356 | 61 | 23 | 0.0 | 2.6 | 0.00 | 0.08 | 0.08 | 73 | 1011.4 |
| 20260904002851 | 61 | 23 | 1.7 | 3.5 | 0.00 | 0.08 | 0.08 | 71 | 1011.3 |
| 20260904002348 | 62 | 121 | 2.6 | 2.6 | 0.00 | 0.08 | 0.08 | 72 | 1011.5 |
| 20260904001847 | 62 | 108 | 0.0 | 1.7 | 0.00 | 0.08 | 0.08 | 71 | 1011.4 |
| 20260904001343 | 62 | 57 | 0.0 | 2.6 | 0.00 | 0.08 | 0.08 | 73 | 1011.6 |
| 20260904000837 | 62 | 60 | 0.0 | 2.6 | 0.00 | 0.08 | 0.08 | 73 | 1011.5 |
| 20260904000336 | 62 | 48 | 1.7 | 1.7 | 0.00 | 0.08 | 0.08 | 73 | 1011.6 |
| 20260903235831 | 61 | 98 | 0.9 | 3.5 | 0.00 | 0.08 | 0.08 | 75 | 1011.5 |
| 20260903235327 | 61 | 69 | 0.0 | 1.7 | 0.00 | 0.08 | 0.08 | 69 | 1011.7 |
| 20260903234826 | 62 | 15 | 0.9 | 1.7 | 0.00 | 0.08 | 0.08 | 71 | 1011.9 |
| 20260903234323 | 61 | 90 | 2.6 | 2.6 | 0.00 | 0.08 | 0.08 | 76 | 1011.9 |
| 20260903233819 | 60 | 107 | 1.7 | 2.6 | 0.00 | 0.08 | 0.08 | 75 | 1011.9 |
| 20260903233315 | 60 | 192 | 0.9 | 1.7 | 0.00 | 0.08 | 0.08 | 84 | 1012.1 |
| 20260903232814 | 59 | 103 | 0.0 | 2.6 | 0.00 | 0.08 | 0.08 | 86 | 1011.9 |
| 20260903232310 | 59 | 90 | 2.6 | 3.5 | 0.02 | 0.08 | 0.08 | 84 | 1012.0 |
| 20260903231809 | 59 | 174 | 0.9 | 1.7 | 0.07 | 0.08 | 0.08 | 83 | 1012.4 |
| 20260903231304 | 60 | 107 | 1.7 | 1.7 | 0.07 | 0.08 | 0.08 | 81 | 1012.6 |
| 20260903230759 | 59 | 293 | 2.6 | 3.5 | 0.02 | 0.07 | 0.07 | 78 | 1012.5 |
| 20260903230254 | 60 | 255 | 4.3 | 5.2 | 0.00 | 0.07 | 0.07 | 77 | 1012.4 |
| 20260903225750 | 60 | 279 | 3.5 | 5.2 | 0.00 | 0.07 | 0.07 | 75 | 1012.4 |
| 20260903225246 | 60 | 279 | 1.7 | 3.5 | 0.00 | 0.07 | 0.07 | 72 | 1012.3 |
| 20260903224742 | 61 | 285 | 4.3 | 6.1 | 0.00 | 0.07 | 0.07 | 72 | 1011.9 |
| 20260903224238 | 61 | 270 | 2.6 | 7.8 | 0.00 | 0.07 | 0.07 | 73 | 1012.0 |
| 20260903223733 | 62 | 324 | 1.7 | 4.3 | 0.00 | 0.07 | 0.07 | 72 | 1012.0 |
| 20260903223232 | 62 | 355 | 1.7 | 3.5 | 0.00 | 0.07 | 0.07 | 73 | 1012.0 |
| 20260903222727 | 61 | 180 | 0.0 | 2.6 | 0.02 | 0.07 | 0.07 | 75 | 1012.0 |
| 20260903222226 | 61 | 165 | 0.9 | 2.6 | 0.02 | 0.07 | 0.07 | 78 | 1012.3 |
| 20260903221721 | 61 | 190 | 0.0 | 1.7 | 0.02 | 0.06 | 0.06 | 78 | 1012.1 |
| 20260903221220 | 61 | 188 | 0.0 | 3.5 | 0.02 | 0.06 | 0.06 | 75 | 1011.9 |
| 20260903220718 | 61 | 294 | 2.6 | 2.6 | 0.00 | 0.06 | 0.06 | 75 | 1012.0 |
| 20260903220213 | 61 | 286 | 2.6 | 5.2 | 0.00 | 0.06 | 0.06 | 73 | 1012.0 |
| 20260903215712 | 61 | 247 | 4.3 | 6.1 | 0.00 | 0.06 | 0.06 | 73 | 1012.0 |
| 20260903215208 | 62 | 270 | 0.0 | 2.6 | 0.00 | 0.06 | 0.06 | 76 | 1012.1 |
| 20260903214706 | 62 | 323 | 1.7 | 3.5 | 0.00 | 0.06 | 0.06 | 76 | 1012.0 |
| 20260903214202 | 62 | 285 | 0.9 | 1.7 | 0.00 | 0.06 | 0.06 | 75 | 1011.8 |
| 20260903213656 | 62 | 6 | 0.0 | 2.6 | 0.00 | 0.06 | 0.06 | 73 | 1012.0 |
| 20260903213152 | 61 | 233 | 1.7 | 4.3 | 0.00 | 0.06 | 0.06 | 74 | 1011.7 |
| 20260903212648 | 62 | 7 | 0.9 | 2.6 | 0.00 | 0.06 | 0.06 | 74 | 1012.3 |
| 20260903212144 | 63 | 90 | 0.0 | 3.5 | 0.07 | 0.06 | 0.06 | 81 | 1012.0 |
| 20260903211638 | 61 | 154 | 0.0 | 1.7 | 0.14 | 0.06 | 0.06 | 79 | 1011.7 |
| 20260903211135 | 60 | 285 | 0.9 | 2.6 | 0.09 | 0.05 | 0.05 | 77 | 1012.0 |
| 20260903210630 | 61 | 321 | 2.6 | 2.6 | 0.05 | 0.04 | 0.04 | 69 | 1011.9 |
| 20260903210125 | 62 | 194 | 1.7 | 1.7 | 0.02 | 0.03 | 0.03 | 67 | 1012.1 |
| 20260903205619 | 62 | 199 | 1.7 | 2.6 | 0.00 | 0.03 | 0.03 | 63 | 1011.9 |
| 20260903205119 | 62 | 228 | 1.7 | 3.5 | 0.00 | 0.03 | 0.03 | 61 | 1011.9 |
| 20260903204614 | 63 | 289 | 0.9 | 3.5 | 0.00 | 0.03 | 0.03 | 60 | 1011.8 |
| 20260903204110 | 63 | 267 | 2.6 | 4.3 | 0.00 | 0.03 | 0.03 | 61 | 1012.1 |
| 20260903203606 | 63 | 314 | 3.5 | 3.5 | 0.00 | 0.03 | 0.03 | 63 | 1011.9 |
| 20260903203106 | 64 | 0 | 1.7 | 5.2 | 0.00 | 0.03 | 0.03 | 66 | 1011.9 |
| 20260903202556 | 64 | 288 | 7.8 | 7.8 | 0.00 | 0.03 | 0.03 | 63 | 1012.0 |
| 20260903202051 | 65 | 321 | 4.3 | 6.1 | 0.00 | 0.03 | 0.03 | 62 | 1011.8 |
| 20260903201545 | 65 | 261 | 0.0 | 6.1 | 0.00 | 0.03 | 0.03 | 58 | 1011.8 |
| 20260903201044 | 65 | 53 | 0.0 | 4.3 | 0.00 | 0.03 | 0.03 | 67 | 1011.7 |
| 20260903200539 | 64 | 212 | 4.3 | 6.1 | 0.00 | 0.03 | 0.03 | 66 | 1011.7 |
| 20260903200034 | 63 | 106 | 0.0 | 1.7 | 0.00 | 0.03 | 0.03 | 68 | 1011.8 |
| 20260903195531 | 62 | 90 | 0.9 | 2.6 | 0.02 | 0.03 | 0.03 | 76 | 1011.9 |
| 20260903195026 | 60 | 217 | 3.5 | 3.5 | 0.09 | 0.03 | 0.03 | 78 | 1012.1 |
| 20260903194521 | 58 | 249 | 2.6 | 7.8 | 0.07 | 0.02 | 0.02 | 73 | 1012.0 |
| 20260903194016 | 59 | 274 | 2.6 | 7.8 | 0.02 | 0.01 | 0.01 | 75 | 1012.4 |
| 20260903193513 | 61 | 276 | 2.6 | 4.3 | 0.02 | 0.01 | 0.01 | 66 | 1012.4 |
| 20260903193007 | 62 | 280 | 3.5 | 3.5 | 0.00 | 0.00 | 0.00 | 63 | 1012.3 |
| 20260903192459 | 62 | 18 | 0.9 | 2.6 | 0.00 | 0.00 | 0.00 | 64 | 1012.1 |
| 20260903191959 | 62 | 252 | 2.6 | 4.3 | 0.00 | 0.00 | 0.00 | 62 | 1012.1 |
| 20260903191454 | 63 | 298 | 2.6 | 5.2 | 0.00 | 0.00 | 0.00 | 61 | 1012.1 |
| 20260903190949 | 63 | 275 | 5.2 | 5.2 | 0.00 | 0.00 | 0.00 | 64 | 1012.1 |
| 20260903190448 | 63 | 273 | 2.6 | 4.3 | 0.00 | 0.00 | 0.00 | 65 | 1012.1 |
| 20260903185943 | 63 | 0 | 2.6 | 4.3 | 0.00 | 0.00 | 0.00 | 65 | 1012.0 |
| 20260903185439 | 62 | 5 | 1.7 | 5.2 | 0.00 | 0.00 | 0.00 | 64 | 1012.1 |
| 20260903184939 | 62 | 90 | 1.7 | 3.5 | 0.00 | 0.00 | 0.00 | 67 | 1012.4 |
| 20260903184436 | 61 | 270 | 0.9 | 3.5 | 0.00 | 0.00 | 0.00 | 69 | 1012.4 |
| 20260903183930 | 61 | 302 | 2.6 | 2.6 | 0.00 | 0.00 | 0.00 | 70 | 1012.6 |
| 20260903183425 | 60 | 285 | 2.6 | 2.6 | 0.00 | 0.00 | 0.00 | 71 | 1012.5 |
| 20260903182924 | 61 | 33 | 1.7 | 1.7 | 0.00 | 0.00 | 0.00 | 74 | 1012.5 |
| 20260903182423 | 60 | 131 | 1.7 | 1.7 | 0.00 | 0.00 | 0.00 | 72 | 1012.7 |
| 20260903181918 | 60 | 342 | 0.9 | 3.5 | 0.00 | 0.00 | 0.00 | 76 | 1012.6 |
| 20260903181413 | 60 | 307 | 1.7 | 4.3 | 0.00 | 0.00 | 0.00 | 77 | 1012.5 |
| 20260903180912 | 59 | 307 | 1.7 | 2.6 | 0.02 | 0.00 | 0.00 | 77 | 1012.6 |
| 20260903180407 | 58 | 270 | 0.0 | 2.6 | 0.00 | 0.00 | 0.00 | 74 | 1012.9 |
| 20260903175907 | 58 | 248 | 1.7 | 3.5 | 0.00 | 0.00 | 0.00 | 74 | 1012.9 |
| 20260903175401 | 59 | 328 | 2.6 | 3.5 | 0.00 | 0.00 | 0.00 | 74 | 1013.0 |
| 20260903174855 | 59 | 309 | 1.7 | 2.6 | 0.00 | 0.00 | 0.00 | 73 | 1012.9 |
| 20260903174350 | 59 | 279 | 1.7 | 2.6 | 0.00 | 0.00 | 0.00 | 75 | 1013.0 |
| 20260903173844 | 60 | 257 | 0.0 | 0.9 | 0.00 | 0.00 | 0.00 | 73 | 1013.0 |
| 20260903173340 | 59 | 47 | 2.6 | 2.6 | 0.00 | 0.00 | 0.00 | 75 | 1013.1 |
| 20260903172836 | 59 | 57 | 0.0 | 3.5 | 0.00 | 0.00 | 0.00 | 77 | 1012.9 |
| 20260903172330 | 57 | 172 | 0.0 | 1.7 | 0.00 | 0.00 | 0.00 | 79 | 1013.0 |
| 20260903171826 | 57 | 215 | 0.0 | 2.6 | 0.00 | 0.00 | 0.00 | 81 | 1013.0 |
| 20260903171321 | 55 | 83 | 2.6 | 2.6 | 0.00 | 0.00 | 0.00 | 82 | 1012.9 |
| 20260903170820 | 54 | 29 | 0.0 | 1.7 | 0.00 | 0.00 | 0.00 | 84 | 1013.0 |
| 20260903170316 | 54 | 330 | 1.7 | 1.7 | 0.00 | 0.00 | 0.00 | 83 | 1013.1 |
| 20260903165814 | 54 | 26 | 0.0 | 4.3 | 0.00 | 0.00 | 0.00 | 84 | 1013.1 |
| 20260903165308 | 54 | 282 | 0.9 | 3.5 | 0.00 | 0.00 | 0.00 | 84 | 1013.1 |
| 20260903164803 | 54 | 270 | 0.0 | 1.7 | 0.00 | 0.00 | 0.00 | 84 | 1013.2 |
| 20260903164259 | 54 | 270 | 0.0 | 2.6 | 0.00 | 0.00 | 0.00 | 85 | 1012.9 |
| 20260903163757 | 54 | 283 | 1.7 | 4.3 | 0.00 | 0.00 | 0.00 | 85 | 1012.7 |
| 20260903163254 | 55 | 327 | 1.7 | 2.6 | 0.00 | 0.00 | 0.00 | 85 | 1012.7 |
| 20260903162752 | 54 | 262 | 0.0 | 3.5 | 0.00 | 0.00 | 0.00 | 85 | 1012.6 |
| 20260903162246 | 55 | 305 | 2.6 | 6.1 | 0.00 | 0.00 | 0.00 | 83 | 1012.5 |
| 20260903161742 | 56 | 303 | 1.7 | 3.5 | 0.00 | 0.00 | 0.00 | 83 | 1012.5 |
| 20260903161237 | 56 | 270 | 1.7 | 3.5 | 0.00 | 0.00 | 0.00 | 83 | 1012.5 |
| 20260903160733 | 54 | 72 | 1.7 | 3.5 | 0.00 | 0.00 | 0.00 | 85 | 1012.4 |
| 20260903160231 | 54 | 270 | 0.0 | 2.6 | 0.00 | 0.00 | 0.00 | 85 | 1012.3 |
| 20260903155730 | 54 | 66 | 0.0 | 2.6 | 0.00 | 0.00 | 0.00 | 86 | 1012.4 |
| 20260903155225 | 54 | 293 | 2.6 | 3.5 | 0.00 | 0.00 | 0.00 | 86 | 1012.3 |
| 20260903154720 | 54 | 84 | 2.6 | 2.6 | 0.00 | 0.00 | 0.00 | 86 | 1012.5 |
| 20260903154216 | 52 | 342 | 0.9 | 2.6 | 0.00 | 0.00 | 0.00 | 88 | 1012.6 |
| 20260903153712 | 52 | 345 | 0.9 | 2.6 | 0.00 | 0.00 | 0.00 | 89 | 1012.5 |
| 20260903153208 | 51 | 114 | 0.0 | 0.9 | 0.00 | 0.00 | 0.00 | 90 | 1012.8 |
| 20260903152704 | 51 | 319 | 3.5 | 3.5 | 0.00 | 0.00 | 0.00 | 92 | 1012.8 |
| 20260903152200 | 50 | 165 | 0.0 | 1.7 | 0.00 | 0.00 | 0.00 | 93 | 1012.5 |
| 20260903151700 | 50 | 240 | 1.7 | 2.6 | 0.00 | 0.00 | 0.00 | 94 | 1012.6 |
| 20260903151155 | 50 | 274 | 2.6 | 3.5 | 0.00 | 0.00 | 0.00 | 93 | 1012.7 |
| 20260903150655 | 50 | 270 | 0.9 | 2.6 | 0.00 | 0.00 | 0.00 | 94 | 1012.6 |
| 20260903150150 | 49 | 279 | 0.0 | 1.7 | 0.00 | 0.00 | 0.00 | 94 | 1012.6 |
| 20260903145649 | 49 | 270 | 0.0 | 3.5 | 0.00 | 0.00 | 0.00 | 94 | 1012.5 |
| 20260903145145 | 49 | 264 | 1.7 | 3.5 | 0.00 | 0.00 | 0.00 | 94 | 1012.8 |
| 20260903144643 | 50 | 228 | 1.7 | 3.5 | 0.00 | 0.00 | 0.00 | 93 | 1012.4 |
| 20260903144140 | 50 | 346 | 2.6 | 2.6 | 0.00 | 0.00 | 0.00 | 94 | 1012.1 |
| 20260903143636 | 49 | 74 | 0.0 | 1.7 | 0.00 | 0.00 | 0.00 | 94 | 1012.4 |
| 20260903143131 | 49 | 337 | 0.9 | 1.7 | 0.00 | 0.00 | 0.00 | 94 | 1012.4 |
| 20260903142627 | 49 | 279 | 0.0 | 2.6 | 0.00 | 0.00 | 0.00 | 94 | 1012.1 |
| 20260903142123 | 49 | 60 | 0.9 | 1.7 | 0.00 | 0.00 | 0.00 | 95 | 1012.3 |
| 20260903141619 | 49 | 18 | 0.0 | 2.6 | 0.00 | 0.00 | 0.00 | 95 | 1012.1 |
| 20260903141113 | 48 | 77 | 0.9 | 2.6 | 0.00 | 0.00 | 0.00 | 95 | 1012.1 |
| 20260903140610 | 49 | 328 | 0.9 | 2.6 | 0.00 | 0.00 | 0.00 | 94 | 1012.0 |
| 20260903140105 | 49 | 235 | 1.7 | 1.7 | 0.00 | 0.00 | 0.00 | 94 | 1012.0 |
| 20260903135601 | 49 | 65 | 1.7 | 2.6 | 0.00 | 0.00 | 0.00 | 94 | 1011.8 |
| 20260903135101 | 49 | 173 | 0.0 | 2.6 | 0.00 | 0.00 | 0.00 | 94 | 1012.0 |
| 20260903134559 | 49 | 102 | 1.7 | 4.3 | 0.00 | 0.00 | 0.00 | 93 | 1011.9 |
| 20260903134055 | 49 | 90 | 0.9 | 2.6 | 0.00 | 0.00 | 0.00 | 94 | 1011.7 |
| 20260903133553 | 48 | 102 | 0.9 | 5.2 | 0.00 | 0.00 | 0.00 | 94 | 1011.5 |
| 20260903133049 | 48 | 60 | 2.6 | 2.6 | 0.00 | 0.00 | 0.00 | 95 | 1011.6 |
| 20260903132543 | 48 | 42 | 2.6 | 5.2 | 0.00 | 0.00 | 0.00 | 95 | 1011.5 |
| 20260903132038 | 48 | 98 | 0.9 | 2.6 | 0.00 | 0.00 | 0.00 | 95 | 1011.7 |
| 20260903131532 | 48 | 99 | 0.0 | 1.7 | 0.00 | 0.00 | 0.00 | 95 | 1011.6 |
| 20260903131032 | 48 | 105 | 0.0 | 2.6 | 0.00 | 0.00 | 0.00 | 95 | 1011.4 |
| 20260903130526 | 48 | 23 | 0.0 | 0.9 | 0.00 | 0.00 | 0.00 | 96 | 1011.5 |
| 20260903130021 | 48 | 41 | 1.7 | 3.5 | 0.00 | 0.00 | 0.00 | 96 | 1011.5 |
| 20260903125519 | 48 | 81 | 1.7 | 3.5 | 0.00 | 0.00 | 0.00 | 96 | 1011.1 |
| 20260903125015 | 48 | 90 | 0.9 | 1.7 | 0.00 | 0.00 | 0.00 | 96 | 1011.3 |
| 20260903124509 | 48 | 90 | 0.0 | 1.7 | 0.00 | 0.00 | 0.00 | 96 | 1011.4 |
| 20260903124008 | 48 | 291 | 0.0 | 1.7 | 0.00 | 0.00 | 0.00 | 96 | 1011.1 |
| 20260903123504 | 48 | 81 | 0.0 | 1.7 | 0.00 | 0.00 | 0.00 | 96 | 1011.0 |
| 20260903123002 | 48 | 120 | 0.9 | 3.5 | 0.00 | 0.00 | 0.00 | 95 | 1011.1 |
| 20260903122456 | 48 | 120 | 0.0 | 0.9 | 0.00 | 0.00 | 0.00 | 95 | 1011.0 |
| 20260903121956 | 48 | 154 | 1.7 | 1.7 | 0.00 | 0.00 | 0.00 | 95 | 1010.9 |
| 20260903121450 | 48 | 191 | 0.9 | 2.6 | 0.00 | 0.00 | 0.00 | 95 | 1011.0 |
| 20260903120947 | 48 | 23 | 1.7 | 2.6 | 0.00 | 0.00 | 0.00 | 95 | 1010.9 |
| 20260903120445 | 48 | 49 | 2.6 | 2.6 | 0.00 | 0.00 | 0.00 | 96 | 1010.8 |
| 20260903115944 | 48 | 106 | 3.5 | 5.2 | 0.00 | 0.00 | 0.00 | 96 | 1011.0 |
| 20260903115443 | 48 | 30 | 1.7 | 2.6 | 0.00 | 0.00 | 0.00 | 96 | 1011.0 |
| 20260903114938 | 48 | 29 | 0.9 | 2.6 | 0.00 | 0.00 | 0.00 | 96 | 1010.9 |
| 20260903114434 | 48 | 74 | 1.7 | 2.6 | 0.00 | 0.00 | 0.00 | 96 | 1010.9 |
| 20260903113929 | 48 | 112 | 1.7 | 2.6 | 0.00 | 0.00 | 0.00 | 96 | 1011.4 |
| 20260903113425 | 48 | 15 | 0.0 | 1.7 | 0.00 | 0.00 | 0.00 | 96 | 1011.1 |
| 20260903112921 | 47 | 90 | 1.7 | 1.7 | 0.00 | 0.00 | 0.00 | 96 | 1010.9 |
| 20260903112416 | 48 | 286 | 0.0 | 1.7 | 0.00 | 0.00 | 0.00 | 96 | 1011.1 |
| 20260903111915 | 47 | 48 | 1.7 | 1.7 | 0.00 | 0.00 | 0.00 | 96 | 1011.1 |
| 20260903111415 | 47 | 90 | 1.7 | 1.7 | 0.00 | 0.00 | 0.00 | 96 | 1011.3 |
| 20260903110911 | 47 | 98 | 0.0 | 2.6 | 0.00 | 0.00 | 0.00 | 96 | 1011.1 |
| 20260903110407 | 47 | 99 | 0.0 | 1.7 | 0.00 | 0.00 | 0.00 | 96 | 1010.8 |
| 20260903105901 | 47 | 96 | 0.9 | 1.7 | 0.00 | 0.00 | 0.00 | 96 | 1010.8 |
| 20260903105357 | 47 | 81 | 0.0 | 1.7 | 0.00 | 0.00 | 0.00 | 96 | 1010.9 |
| 20260903104856 | 47 | 192 | 0.0 | 1.7 | 0.00 | 0.00 | 0.00 | 95 | 1010.7 |
| 20260903104350 | 47 | 255 | 0.0 | 0.9 | 0.00 | 0.00 | 0.00 | 96 | 1011.0 |
| 20260903103848 | 47 | 120 | 0.0 | 0.9 | 0.00 | 0.00 | 0.00 | 95 | 1010.9 |
| 20260903103344 | 47 | 105 | 0.0 | 1.7 | 0.00 | 0.00 | 0.00 | 96 | 1011.0 |
| 20260903102838 | 47 | 117 | 0.9 | 5.2 | 0.00 | 0.00 | 0.00 | 96 | 1010.9 |
| 20260903102333 | 47 | 94 | 1.7 | 4.3 | 0.00 | 0.00 | 0.00 | 96 | 1010.7 |
| 20260903101833 | 47 | 79 | 2.6 | 4.3 | 0.00 | 0.00 | 0.00 | 96 | 1010.9 |
| 20260903101328 | 47 | 99 | 3.5 | 4.3 | 0.00 | 0.00 | 0.00 | 96 | 1010.9 |
| 20260903100823 | 47 | 98 | 2.6 | 4.3 | 0.00 | 0.00 | 0.00 | 96 | 1011.1 |
| 20260903100317 | 47 | 105 | 2.6 | 3.5 | 0.00 | 0.00 | 0.00 | 96 | 1011.0 |
| 20260903095815 | 47 | 40 | 0.9 | 1.7 | 0.00 | 0.00 | 0.00 | 96 | 1010.9 |
| 20260903095309 | 47 | 99 | 0.0 | 1.7 | 0.00 | 0.00 | 0.00 | 96 | 1011.1 |
| 20260903094805 | 47 | 83 | 0.9 | 1.7 | 0.00 | 0.00 | 0.00 | 96 | 1011.1 |
| 20260903094259 | 47 | 45 | 1.7 | 1.7 | 0.00 | 0.00 | 0.00 | 96 | 1011.0 |
| 20260903093755 | 47 | 57 | 0.9 | 1.7 | 0.00 | 0.00 | 0.00 | 96 | 1010.9 |
| 20260903093250 | 47 | 94 | 1.7 | 1.7 | 0.00 | 0.00 | 0.00 | 95 | 1011.0 |
| 20260903092750 | 47 | 95 | 1.7 | 1.7 | 0.00 | 0.00 | 0.00 | 95 | 1011.0 |
| 20260903092245 | 47 | 56 | 1.7 | 1.7 | 0.00 | 0.00 | 0.00 | 95 | 1011.1 |
| 20260903091743 | 47 | 45 | 1.7 | 2.6 | 0.00 | 0.00 | 0.00 | 96 | 1010.8 |
| 20260903091232 | 47 | 85 | 1.7 | 1.7 | 0.00 | 0.00 | 0.00 | 95 | 1010.9 |
| 20260903090728 | 47 | 98 | 0.0 | 0.9 | 0.00 | 0.00 | 0.00 | 95 | 1010.9 |